Weather History for Dunkirk, NY

Change the Weather History Date:

Wednesday, February 1, 2012

  Actual Average Record
Temperature  
Mean Temperature 46 °F -  
Max Temperature 55 °F 34 °F 62 °F (1988)
Min Temperature 36 °F 19 °F -10 °F (1948)
Degree Days  
Heating Degree Days 19    
Moisture  
Dew Point 39 °F    
Average Humidity 83    
Maximum Humidity 93    
Minimum Humidity 62    
Precipitation  
Precipitation 0.23 in - - ()
Sea Level Pressure  
Sea Level Pressure 29.96 in    
Wind  
Wind Speed 15 mph (WSW)    
Max Wind Speed 21 mph    
Max Gust Speed 29 mph    
Visibility 7 miles    
Events Rain    
Averages and records for this station are not official NWS values.
T = Trace of Precipitation, MM = Missing Value Source: NWS Daily Summary

Daily Weather History Graph

Daily Weather History Graph

Search for Another Location

Airport:

Trip Planner

Search our weather history database for the weather conditions in past years. The results will help you decide how hot, cold, wet, or windy it might be!

Date:

Astronomy

Feb. 01, 2012 Rise Set
Actual Time 7:31 AM EST 5:30 PM EST
Civil Twilight 7:01 AM EST 6:00 PM EST
Nautical Twilight 6:27 AM EST 6:33 PM EST
Astronomical Twilight 5:54 AM EST 7:06 PM EST
Moon 11:55 AM EST (2/1) 2:17 AM EST (2/1)
Length of Visible Light 10h 58m
Length of Day
9h 58m
Waxing Gibbous, 64% of the Moon is Illuminated
Feb 1
Waxing Gibbous
Feb 7
Full
Feb 14
Last Quarter
Feb 21
New
Feb 29
First Quarter

Hourly Weather History & Observations

Time (EST) Temp. Windchill Dew Point Humidity Pressure Visibility Wind Dir Wind Speed Gust Speed Precip Events Conditions
12:53 AM 55.0 °F - 42.1 °F 62% 29.84 in 10.0 mi SSW 20.7 mph 25.3 mph N/A   Overcast
1:53 AM 53.1 °F - 44.1 °F 71% 29.83 in 10.0 mi SSW 16.1 mph - N/A   Overcast
2:29 AM 51.8 °F - 46.4 °F 82% 29.83 in 4.0 mi SW 13.8 mph - 0.08 in Rain Heavy Rain
2:53 AM 50.0 °F - 46.0 °F 86% 29.83 in 4.0 mi SW 13.8 mph - 0.12 in Rain Light Rain
3:53 AM 50.0 °F - 45.0 °F 83% 29.83 in 10.0 mi SW 15.0 mph 21.9 mph 0.05 in   Overcast
4:53 AM 50.0 °F - 45.0 °F 83% 29.82 in 10.0 mi SW 13.8 mph - 0.03 in   Overcast
5:53 AM 48.9 °F - 46.0 °F 90% 29.83 in 10.0 mi SW 12.7 mph - 0.02 in Rain Light Rain
6:53 AM 51.1 °F - 46.0 °F 83% 29.85 in 10.0 mi WSW 15.0 mph 24.2 mph 0.01 in Rain Light Rain
7:53 AM 50.0 °F - 46.0 °F 86% 29.87 in 10.0 mi WSW 18.4 mph 27.6 mph 0.00 in   Overcast
8:51 AM 46.4 °F 39.2 °F 42.8 °F 87% 29.90 in 8.0 mi West 18.4 mph 28.8 mph N/A   Overcast
8:53 AM 46.0 °F 38.5 °F 42.1 °F 86% 29.91 in 8.0 mi West 19.6 mph 28.8 mph N/A   Overcast
9:27 AM 46.4 °F 39.8 °F 42.8 °F 87% 29.91 in 7.0 mi WSW 16.1 mph 26.5 mph N/A   Overcast
9:53 AM 45.0 °F 38.2 °F 42.1 °F 90% 29.93 in 4.0 mi WSW 15.0 mph 26.5 mph N/A   Overcast
10:04 AM 44.6 °F 38.1 °F 42.8 °F 93% 29.92 in 2.5 mi WSW 13.8 mph 21.9 mph N/A   Overcast
10:10 AM 42.8 °F 35.4 °F 41.0 °F 93% 29.92 in 1.0 mi West 15.0 mph 21.9 mph N/A   Overcast
10:19 AM 42.8 °F 34.3 °F 41.0 °F 93% 29.93 in 0.8 mi WSW 19.6 mph 27.6 mph N/A   Overcast
10:53 AM 42.1 °F 33.9 °F 39.9 °F 92% 29.96 in 1.0 mi WSW 17.3 mph 26.5 mph N/A   Overcast
11:05 AM 41.0 °F 32.8 °F 39.2 °F 93% 29.95 in 1.8 mi WSW 16.1 mph 23.0 mph N/A   Overcast
11:12 AM 41.0 °F 32.8 °F 39.2 °F 93% 29.95 in 2.5 mi WSW 16.1 mph 26.5 mph N/A   Overcast
11:36 AM 41.0 °F 33.5 °F 39.2 °F 93% 29.96 in 4.0 mi WSW 13.8 mph - N/A   Overcast
11:53 AM 41.0 °F 33.5 °F 37.9 °F 89% 29.97 in 5.0 mi WSW 13.8 mph 21.9 mph N/A   Overcast
12:53 PM 42.1 °F 34.9 °F 35.1 °F 76% 29.99 in 8.0 mi WSW 13.8 mph - N/A   Overcast
1:53 PM 41.0 °F 35.2 °F 35.1 °F 79% 30.01 in 8.0 mi WSW 9.2 mph 20.7 mph N/A   Overcast
2:42 PM 41.0 °F 33.1 °F 35.6 °F 81% 30.02 in 8.0 mi WSW 15.0 mph - N/A   Overcast
2:53 PM 41.0 °F 33.9 °F 34.0 °F 76% 30.04 in 8.0 mi WSW 12.7 mph - N/A   Overcast
3:34 PM 41.0 °F 35.2 °F 33.8 °F 76% 30.05 in 8.0 mi WSW 9.2 mph 19.6 mph N/A   Overcast
3:53 PM 39.9 °F 32.1 °F 34.0 °F 79% 30.07 in 8.0 mi WSW 13.8 mph - N/A   Overcast
4:53 PM 41.0 °F 34.7 °F 32.0 °F 70% 30.08 in 10.0 mi West 10.4 mph - N/A   Overcast
5:04 PM 39.2 °F 31.6 °F 33.8 °F 81% 30.07 in 10.0 mi West 12.7 mph 20.7 mph N/A   Overcast
5:53 PM 39.0 °F 32.8 °F 33.1 °F 79% 30.09 in 10.0 mi West 9.2 mph - N/A   Overcast
6:53 PM 39.0 °F 35.7 °F 33.1 °F 79% 30.09 in 9.0 mi West 4.6 mph - N/A   Overcast
7:53 PM 37.9 °F 34.4 °F 33.1 °F 83% 30.11 in 10.0 mi Variable 4.6 mph - N/A   Overcast
8:53 PM 37.9 °F 34.4 °F 32.0 °F 79% 30.12 in 10.0 mi NW 4.6 mph - N/A   Overcast
9:53 PM 37.9 °F 31.5 °F 28.9 °F 70% 30.12 in 10.0 mi NW 9.2 mph - N/A   Overcast
10:53 PM 37.0 °F 31.6 °F 28.9 °F 73% 30.11 in 10.0 mi NNW 6.9 mph - N/A   Overcast
11:53 PM 36.0 °F 33.3 °F 30.0 °F 79% 30.12 in 10.0 mi North 3.5 mph - N/A   Overcast